Terminal Aerodrome Forecast
Issued by NWS Salt Lake City, UT

Home | Current Version | Previous Version | Text Only | Print | Product List | Glossary On
Versions: 1 2 3 4 5 6 7 8 9 10 11 12 13 14 15 16 17 18 19 20 21 22 23 24 25 26 27 28 29 30 31 32 33 34 35 36 37 38 39 40 41 42 43 44 45 46 47 48 49 50
000
FTUS45 KSLC 022017 AAA
TAFSLC
TAF AMD
KSLC 022017Z 0220/0324 18007KT P6SM -SHRA BKN025 BKN040
     FM022200 33007KT P6SM -SHRA SCT025 BKN040
     FM030000 31009KT 5SM -RASN BR SCT010 BKN025
     FM030200 29004KT 2SM -SN SCT007 BKN020
     FM030500 15007KT P6SM VCSH SCT020 BKN050
     FM031300 33008KT 1SM -SN SCT004 BKN015
     FM031800 33011KT P6SM VCSH SCT015 BKN050=

USA.gov is the U.S. government's official web portal to all federal, state and local government web resources and services.